Time,TemperatureF,DewpointF,PressureIn,WindDirection,WindDirectionDegrees,WindSpeedMPH,WindSpeedGustMPH,Humidity,HourlyPrecipIn,Conditions,Clouds,dailyrainin,SoftwareType,DateUTC
2013-11-22 00:01:00,39.9,39.0,30.23,South,180,0.0,0.0,96,0.00,,,0.00,Rainwise IP-100,2013-11-22 05:01:00,
2013-11-22 00:06:00,39.6,39.0,30.23,South,180,0.0,0.0,96,0.00,,,0.00,Rainwise IP-100,2013-11-22 05:06:00,
2013-11-22 00:11:00,39.6,39.0,30.23,South,180,0.0,0.0,96,0.00,,,0.00,Rainwise IP-100,2013-11-22 05:11:00,
2013-11-22 00:16:00,39.6,39.0,30.23,South,180,0.0,0.0,96,0.00,,,0.00,Rainwise IP-100,2013-11-22 05:16:00,
2013-11-22 00:21:00,39.7,39.0,30.23,South,180,0.0,0.0,96,0.00,,,0.00,Rainwise IP-100,2013-11-22 05:21:00,
2013-11-22 00:26:00,39.4,38.0,30.22,South,180,0.0,0.0,96,0.00,,,0.00,Rainwise IP-100,2013-11-22 05:26:00,
2013-11-22 00:31:00,39.5,39.0,30.21,South,180,0.0,0.0,96,0.00,,,0.00,Rainwise IP-100,2013-11-22 05:31:00,
2013-11-22 00:36:00,39.2,38.0,30.21,South,180,0.0,0.0,96,0.00,,,0.00,Rainwise IP-100,2013-11-22 05:36:00,
2013-11-22 00:41:00,39.2,38.0,30.21,South,180,0.0,0.0,96,0.00,,,0.00,Rainwise IP-100,2013-11-22 05:41:00,
2013-11-22 00:46:00,39.3,38.0,30.22,South,180,0.0,0.0,96,0.00,,,0.00,Rainwise IP-100,2013-11-22 05:46:00,
2013-11-22 00:51:00,39.3,38.0,30.22,South,180,0.0,0.0,96,0.00,,,0.00,Rainwise IP-100,2013-11-22 05:51:00,
2013-11-22 00:56:00,39.4,38.0,30.21,South,180,0.0,0.0,96,0.00,,,0.00,Rainwise IP-100,2013-11-22 05:56:00,
2013-11-22 01:01:00,39.4,38.0,30.21,South,180,0.0,0.0,96,0.00,,,0.00,Rainwise IP-100,2013-11-22 06:01:00,
2013-11-22 01:06:00,39.4,38.0,30.21,South,180,0.0,0.0,96,0.00,,,0.00,Rainwise IP-100,2013-11-22 06:06:00,
2013-11-22 01:11:00,39.4,38.0,30.21,South,180,0.0,0.0,96,0.00,,,0.00,Rainwise IP-100,2013-11-22 06:11:00,
2013-11-22 01:16:00,39.5,39.0,30.20,South,180,0.0,0.0,96,0.00,,,0.00,Rainwise IP-100,2013-11-22 06:16:00,
2013-11-22 01:21:00,39.3,38.0,30.20,South,180,0.0,0.0,96,0.00,,,0.00,Rainwise IP-100,2013-11-22 06:21:00,
2013-11-22 01:26:00,39.3,38.0,30.20,South,180,0.0,0.0,96,0.00,,,0.00,Rainwise IP-100,2013-11-22 06:26:00,
2013-11-22 01:31:00,39.6,39.0,30.20,South,180,0.0,0.0,96,0.00,,,0.00,Rainwise IP-100,2013-11-22 06:31:00,
2013-11-22 01:36:00,39.4,38.0,30.20,South,180,0.0,0.0,96,0.00,,,0.00,Rainwise IP-100,2013-11-22 06:36:00,
2013-11-22 01:41:00,39.6,39.0,30.20,South,180,0.0,0.0,96,0.00,,,0.00,Rainwise IP-100,2013-11-22 06:41:00,
2013-11-22 01:46:00,39.6,39.0,30.19,South,180,0.0,0.0,96,0.00,,,0.00,Rainwise IP-100,2013-11-22 06:46:00,
2013-11-22 01:51:00,39.6,39.0,30.19,South,180,0.0,0.0,96,0.00,,,0.00,Rainwise IP-100,2013-11-22 06:51:00,
2013-11-22 01:56:00,39.6,39.0,30.19,South,180,0.0,0.0,96,0.00,,,0.00,Rainwise IP-100,2013-11-22 06:56:00,
2013-11-22 02:01:00,39.7,39.0,30.20,South,180,0.0,0.0,96,0.00,,,0.00,Rainwise IP-100,2013-11-22 07:01:00,
2013-11-22 02:06:00,39.7,39.0,30.19,South,180,0.0,0.0,96,0.00,,,0.00,Rainwise IP-100,2013-11-22 07:06:00,
2013-11-22 02:11:00,39.4,38.0,30.19,South,180,0.0,0.0,96,0.00,,,0.00,Rainwise IP-100,2013-11-22 07:11:00,
2013-11-22 02:16:00,39.6,39.0,30.19,South,180,0.0,0.0,96,0.00,,,0.00,Rainwise IP-100,2013-11-22 07:16:00,
2013-11-22 02:21:00,39.6,39.0,30.19,South,180,0.0,0.0,96,0.00,,,0.00,Rainwise IP-100,2013-11-22 07:21:00,
2013-11-22 02:26:00,39.6,39.0,30.19,South,180,0.0,0.0,96,0.00,,,0.00,Rainwise IP-100,2013-11-22 07:26:00,
2013-11-22 08:25:00,42.2,41.0,30.14,South,180,0.0,0.0,96,0.00,,,0.00,Rainwise IP-100,2013-11-22 13:25:00,
2013-11-22 08:30:00,42.3,41.0,30.14,South,180,0.0,0.0,96,0.00,,,0.00,Rainwise IP-100,2013-11-22 13:30:00,
2013-11-22 08:35:00,42.4,41.0,30.13,South,180,0.0,0.0,96,0.00,,,0.00,Rainwise IP-100,2013-11-22 13:35:00,
2013-11-22 08:40:00,42.5,42.0,30.14,South,180,0.0,0.0,96,0.00,,,0.00,Rainwise IP-100,2013-11-22 13:40:00,
2013-11-22 08:45:00,42.6,42.0,30.14,South,180,0.0,0.0,96,0.00,,,0.00,Rainwise IP-100,2013-11-22 13:45:00,
2013-11-22 08:50:00,42.7,42.0,30.14,South,180,0.0,0.0,96,0.00,,,0.00,Rainwise IP-100,2013-11-22 13:50:00,
2013-11-22 08:55:00,42.9,42.0,30.14,South,180,1.0,0.0,96,0.00,,,0.00,Rainwise IP-100,2013-11-22 13:55:00,
2013-11-22 09:00:00,43.2,42.0,30.14,SE,135,0.0,1.0,96,0.00,,,0.00,Rainwise IP-100,2013-11-22 14:00:00,
2013-11-22 09:05:00,43.4,42.0,30.14,SE,135,0.0,0.0,96,0.00,,,0.00,Rainwise IP-100,2013-11-22 14:05:00,
2013-11-22 09:10:00,43.6,43.0,30.14,SE,135,0.0,0.0,96,0.00,,,0.00,Rainwise IP-100,2013-11-22 14:10:00,
2013-11-22 09:15:00,43.7,43.0,30.15,SE,135,0.0,0.0,96,0.00,,,0.00,Rainwise IP-100,2013-11-22 14:15:00,
2013-11-22 09:20:00,43.8,43.0,30.14,SE,135,0.0,0.0,96,0.00,,,0.00,Rainwise IP-100,2013-11-22 14:20:00,
2013-11-22 09:25:00,43.9,43.0,30.13,SE,135,0.0,0.0,96,0.00,,,0.00,Rainwise IP-100,2013-11-22 14:25:00,
2013-11-22 09:30:00,44.5,44.0,30.13,SE,135,0.0,0.0,96,0.00,,,0.00,Rainwise IP-100,2013-11-22 14:30:00,
2013-11-22 09:35:00,44.7,44.0,30.15,SE,135,0.0,0.0,96,0.00,,,0.00,Rainwise IP-100,2013-11-22 14:35:00,
2013-11-22 09:40:00,44.9,44.0,30.14,SE,135,0.0,0.0,96,0.00,,,0.00,Rainwise IP-100,2013-11-22 14:40:00,
2013-11-22 09:45:00,45.1,44.0,30.15,SE,135,0.0,0.0,97,0.00,,,0.00,Rainwise IP-100,2013-11-22 14:45:00,
2013-11-22 09:50:00,45.4,44.0,30.15,SE,135,0.0,0.0,97,0.00,,,0.00,Rainwise IP-100,2013-11-22 14:50:00,
2013-11-22 09:55:00,45.7,45.0,30.14,SE,135,0.0,0.0,97,0.00,,,0.00,Rainwise IP-100,2013-11-22 14:55:00,
2013-11-22 10:00:00,45.9,45.0,30.14,SE,135,0.0,0.0,97,0.00,,,0.00,Rainwise IP-100,2013-11-22 15:00:00,
2013-11-22 10:05:00,46.3,45.0,30.13,SE,135,0.0,0.0,97,0.00,,,0.00,Rainwise IP-100,2013-11-22 15:05:00,
2013-11-22 10:10:00,46.5,46.0,30.14,SE,135,0.0,0.0,97,0.00,,,0.00,Rainwise IP-100,2013-11-22 15:10:00,
2013-11-22 10:15:00,46.7,46.0,30.14,SE,135,0.0,0.0,97,0.00,,,0.00,Rainwise IP-100,2013-11-22 15:15:00,
2013-11-22 10:20:00,46.9,46.0,30.13,SE,135,0.0,0.0,97,0.00,,,0.00,Rainwise IP-100,2013-11-22 15:20:00,
2013-11-22 10:25:00,47.1,46.0,30.14,SE,135,0.0,0.0,97,0.00,,,0.00,Rainwise IP-100,2013-11-22 15:25:00,
2013-11-22 10:30:00,47.4,47.0,30.13,SE,135,0.0,0.0,97,0.00,,,0.00,Rainwise IP-100,2013-11-22 15:30:00,
2013-11-22 10:35:00,47.5,47.0,30.13,SE,135,0.0,0.0,97,0.00,,,0.00,Rainwise IP-100,2013-11-22 15:35:00,
2013-11-22 10:40:00,47.7,47.0,30.13,SE,135,0.0,0.0,97,0.00,,,0.00,Rainwise IP-100,2013-11-22 15:40:00,
2013-11-22 10:45:00,47.8,47.0,30.13,SE,135,0.0,0.0,97,0.00,,,0.00,Rainwise IP-100,2013-11-22 15:45:00,
2013-11-22 10:50:00,47.9,47.0,30.13,SE,135,0.0,0.0,97,0.00,,,0.00,Rainwise IP-100,2013-11-22 15:50:00,
2013-11-22 10:55:00,47.9,47.0,30.13,SE,135,0.0,0.0,97,0.00,,,0.00,Rainwise IP-100,2013-11-22 15:55:00,
2013-11-22 11:00:00,48.1,47.0,30.12,SE,135,0.0,0.0,97,0.00,,,0.00,Rainwise IP-100,2013-11-22 16:00:00,
2013-11-22 11:05:00,48.2,47.0,30.12,SE,135,0.0,0.0,97,0.00,,,0.00,Rainwise IP-100,2013-11-22 16:05:00,
2013-11-22 11:10:00,48.3,47.0,30.12,SE,135,0.0,0.0,97,0.00,,,0.00,Rainwise IP-100,2013-11-22 16:10:00,
2013-11-22 11:15:00,48.5,48.0,30.11,SE,135,0.0,0.0,97,0.00,,,0.00,Rainwise IP-100,2013-11-22 16:15:00,
2013-11-22 11:20:00,48.7,48.0,30.11,SE,135,0.0,0.0,97,0.00,,,0.00,Rainwise IP-100,2013-11-22 16:20:00,
2013-11-22 11:25:00,48.8,48.0,30.11,SE,135,0.0,0.0,97,0.00,,,0.00,Rainwise IP-100,2013-11-22 16:25:00,
2013-11-22 11:30:00,48.9,48.0,30.11,SE,135,0.0,0.0,97,0.00,,,0.00,Rainwise IP-100,2013-11-22 16:30:00,
2013-11-22 11:35:00,49.1,48.0,30.10,ESE,112,0.0,0.0,97,0.00,,,0.00,Rainwise IP-100,2013-11-22 16:35:00,
2013-11-22 11:40:00,49.1,48.0,30.10,ESE,112,0.0,0.0,97,0.00,,,0.00,Rainwise IP-100,2013-11-22 16:40:00,
2013-11-22 11:45:00,49.2,48.0,30.11,ESE,112,0.0,0.0,97,0.00,,,0.00,Rainwise IP-100,2013-11-22 16:45:00,
2013-11-22 11:50:00,49.6,49.0,30.10,ESE,112,0.0,1.0,97,0.00,,,0.00,Rainwise IP-100,2013-11-22 16:50:00,
2013-11-22 11:55:00,49.6,49.0,30.09,ENE,67,0.0,2.0,97,0.00,,,0.00,Rainwise IP-100,2013-11-22 16:55:00,
2013-11-22 12:00:00,49.7,49.0,30.09,ENE,67,0.0,0.0,97,0.00,,,0.00,Rainwise IP-100,2013-11-22 17:00:00,
2013-11-22 12:05:00,49.8,49.0,30.09,ENE,67,0.0,0.0,97,0.00,,,0.00,Rainwise IP-100,2013-11-22 17:05:00,
2013-11-22 12:10:00,50.1,49.0,30.09,East,90,0.0,1.0,97,0.00,,,0.00,Rainwise IP-100,2013-11-22 17:10:00,
2013-11-22 12:15:00,50.1,49.0,30.09,East,90,0.0,0.0,97,0.00,,,0.00,Rainwise IP-100,2013-11-22 17:15:00,
2013-11-22 12:20:00,50.1,49.0,30.09,East,90,0.0,2.0,97,0.00,,,0.00,Rainwise IP-100,2013-11-22 17:20:00,
2013-11-22 12:25:00,50.2,49.0,30.09,East,90,0.0,0.0,97,0.00,,,0.00,Rainwise IP-100,2013-11-22 17:25:00,
2013-11-22 12:30:00,50.5,50.0,30.08,NW,315,1.0,1.0,97,0.00,,,0.00,Rainwise IP-100,2013-11-22 17:30:00,
2013-11-22 12:35:00,50.5,50.0,30.08,East,90,1.0,1.0,97,0.00,,,0.00,Rainwise IP-100,2013-11-22 17:35:00,
2013-11-22 12:40:00,50.5,50.0,30.08,SE,135,1.0,1.0,97,0.00,,,0.00,Rainwise IP-100,2013-11-22 17:40:00,
2013-11-22 12:45:00,50.5,50.0,30.07,SE,135,0.0,1.0,97,0.00,,,0.00,Rainwise IP-100,2013-11-22 17:45:00,
2013-11-22 12:50:00,50.5,50.0,30.07,SE,135,0.0,0.0,97,0.00,,,0.00,Rainwise IP-100,2013-11-22 17:50:00,
2013-11-22 12:55:00,50.5,50.0,30.07,SE,135,0.0,0.0,97,0.00,,,0.00,Rainwise IP-100,2013-11-22 17:55:00,
2013-11-22 13:00:00,50.5,50.0,30.07,SE,135,0.0,0.0,97,0.00,,,0.00,Rainwise IP-100,2013-11-22 18:00:00,
2013-11-22 13:05:00,50.6,50.0,30.07,SE,135,0.0,0.0,97,0.00,,,0.00,Rainwise IP-100,2013-11-22 18:05:00,
2013-11-22 13:10:00,50.6,50.0,30.07,SE,135,0.0,0.0,97,0.00,,,0.00,Rainwise IP-100,2013-11-22 18:10:00,
2013-11-22 13:15:00,50.7,50.0,30.07,East,90,1.0,1.0,97,0.00,,,0.00,Rainwise IP-100,2013-11-22 18:15:00,
2013-11-22 13:20:00,50.8,50.0,30.07,East,90,1.0,1.0,97,0.00,,,0.00,Rainwise IP-100,2013-11-22 18:20:00,
2013-11-22 13:25:00,51.0,50.0,30.06,ENE,67,1.0,2.0,97,0.00,,,0.00,Rainwise IP-100,2013-11-22 18:25:00,
2013-11-22 13:30:00,50.9,50.0,30.06,ENE,67,0.0,1.0,97,0.00,,,0.00,Rainwise IP-100,2013-11-22 18:30:00,
2013-11-22 13:35:00,51.1,50.0,30.06,NNE,22,0.0,0.0,97,0.00,,,0.00,Rainwise IP-100,2013-11-22 18:35:00,
2013-11-22 13:40:00,51.2,50.0,30.06,ENE,67,0.0,2.0,97,0.00,,,0.00,Rainwise IP-100,2013-11-22 18:40:00,
2013-11-22 13:45:00,51.3,50.0,30.06,SE,135,2.0,2.0,97,0.00,,,0.00,Rainwise IP-100,2013-11-22 18:45:00,
2013-11-22 13:50:00,51.4,50.0,30.06,SSE,157,0.0,2.0,97,0.00,,,0.00,Rainwise IP-100,2013-11-22 18:50:00,
2013-11-22 13:55:00,51.5,51.0,30.05,WSW,247,0.0,0.0,97,0.00,,,0.00,Rainwise IP-100,2013-11-22 18:55:00,
2013-11-22 14:00:00,51.6,51.0,30.05,East,90,0.0,2.0,97,0.00,,,0.00,Rainwise IP-100,2013-11-22 19:00:00,
2013-11-22 14:05:00,51.6,51.0,30.05,East,90,0.0,0.0,97,0.00,,,0.00,Rainwise IP-100,2013-11-22 19:05:00,
2013-11-22 14:10:00,51.6,51.0,30.05,East,90,0.0,2.0,97,0.00,,,0.00,Rainwise IP-100,2013-11-22 19:10:00,
2013-11-22 14:15:00,51.6,51.0,30.05,East,90,0.0,2.0,97,0.00,,,0.00,Rainwise IP-100,2013-11-22 19:15:00,
2013-11-22 14:20:00,51.6,51.0,30.05,East,90,0.0,0.0,97,0.00,,,0.00,Rainwise IP-100,2013-11-22 19:20:00,
2013-11-22 14:25:00,51.5,51.0,30.05,East,90,0.0,0.0,97,0.00,,,0.00,Rainwise IP-100,2013-11-22 19:25:00,
2013-11-22 14:30:00,51.5,51.0,30.05,South,180,0.0,2.0,97,0.00,,,0.00,Rainwise IP-100,2013-11-22 19:30:00,
2013-11-22 14:35:00,51.4,50.0,30.05,SSE,157,2.0,2.0,97,0.00,,,0.00,Rainwise IP-100,2013-11-22 19:35:00,
2013-11-22 14:40:00,51.5,51.0,30.05,SSE,157,0.0,2.0,97,0.00,,,0.00,Rainwise IP-100,2013-11-22 19:40:00,
2013-11-22 14:45:00,51.4,50.0,30.05,SE,135,0.0,2.0,97,0.00,,,0.00,Rainwise IP-100,2013-11-22 19:45:00,
2013-11-22 14:50:00,51.4,50.0,30.05,East,90,0.0,0.0,97,0.00,,,0.00,Rainwise IP-100,2013-11-22 19:50:00,
2013-11-22 14:55:00,51.5,51.0,30.04,East,90,0.0,2.0,97,0.00,,,0.00,Rainwise IP-100,2013-11-22 19:55:00,
2013-11-22 15:00:00,51.6,51.0,30.03,NNE,22,0.0,0.0,97,0.00,,,0.00,Rainwise IP-100,2013-11-22 20:00:00,
2013-11-22 15:05:00,51.7,51.0,30.04,NNE,22,0.0,0.0,97,0.00,,,0.00,Rainwise IP-100,2013-11-22 20:05:00,
2013-11-22 15:10:00,51.6,51.0,30.03,NNE,22,0.0,0.0,97,0.00,,,0.00,Rainwise IP-100,2013-11-22 20:10:00,
2013-11-22 15:15:00,51.6,51.0,30.03,NNE,22,0.0,0.0,97,0.00,,,0.00,Rainwise IP-100,2013-11-22 20:15:00,
2013-11-22 15:20:00,51.6,51.0,30.03,NE,45,0.0,0.0,97,0.00,,,0.00,Rainwise IP-100,2013-11-22 20:20:00,
2013-11-22 15:25:00,51.6,51.0,30.03,WSW,247,1.0,1.0,97,0.00,,,0.00,Rainwise IP-100,2013-11-22 20:25:00,
2013-11-22 15:30:00,51.6,51.0,30.03,South,180,0.0,1.0,97,0.00,,,0.00,Rainwise IP-100,2013-11-22 20:30:00,
2013-11-22 15:35:00,51.5,51.0,30.03,South,180,0.0,1.0,97,0.00,,,0.00,Rainwise IP-100,2013-11-22 20:35:00,
2013-11-22 15:40:00,51.5,51.0,30.03,East,90,1.0,1.0,97,0.00,,,0.00,Rainwise IP-100,2013-11-22 20:40:00,
2013-11-22 15:45:00,51.6,51.0,30.03,East,90,0.0,2.0,97,0.00,,,0.00,Rainwise IP-100,2013-11-22 20:45:00,
2013-11-22 15:50:00,51.5,51.0,30.03,East,90,0.0,0.0,97,0.00,,,0.00,Rainwise IP-100,2013-11-22 20:50:00,
2013-11-22 15:55:00,51.4,50.0,30.02,East,90,0.0,2.0,97,0.00,,,0.00,Rainwise IP-100,2013-11-22 20:55:00,
2013-11-22 16:00:00,51.4,50.0,30.03,East,90,0.0,0.0,97,0.00,,,0.00,Rainwise IP-100,2013-11-22 21:00:00,
2013-11-22 16:05:00,51.3,50.0,30.03,SE,135,0.0,2.0,97,0.00,,,0.00,Rainwise IP-100,2013-11-22 21:05:00,
2013-11-22 16:10:00,51.3,50.0,30.03,East,90,0.0,2.0,97,0.00,,,0.00,Rainwise IP-100,2013-11-22 21:10:00,
2013-11-22 16:15:00,51.3,50.0,30.03,SW,225,0.0,1.0,97,0.00,,,0.00,Rainwise IP-100,2013-11-22 21:15:00,
2013-11-22 16:20:00,51.3,50.0,30.03,NE,45,0.0,1.0,97,0.00,,,0.00,Rainwise IP-100,2013-11-22 21:20:00,
2013-11-22 16:25:00,51.3,50.0,30.03,WNW,292,1.0,2.0,97,0.00,,,0.00,Rainwise IP-100,2013-11-22 21:25:00,
2013-11-22 16:30:00,51.3,50.0,30.03,WNW,292,2.0,2.0,97,0.00,,,0.00,Rainwise IP-100,2013-11-22 21:30:00,
2013-11-22 16:35:00,51.2,50.0,30.03,NW,315,0.0,2.0,97,0.00,,,0.00,Rainwise IP-100,2013-11-22 21:35:00,
2013-11-22 16:40:00,51.2,50.0,30.03,NW,315,2.0,2.0,97,0.00,,,0.00,Rainwise IP-100,2013-11-22 21:40:00,
2013-11-22 16:45:00,51.2,50.0,30.02,NW,315,0.0,2.0,97,0.00,,,0.00,Rainwise IP-100,2013-11-22 21:45:00,
2013-11-22 16:50:00,51.1,50.0,30.03,NNE,22,0.0,2.0,97,0.00,,,0.00,Rainwise IP-100,2013-11-22 21:50:00,
2013-11-22 16:55:00,51.1,50.0,30.02,NNW,337,1.0,2.0,97,0.00,,,0.00,Rainwise IP-100,2013-11-22 21:55:00,
2013-11-22 17:00:00,51.0,50.0,30.02,NW,315,1.0,2.0,97,0.00,,,0.00,Rainwise IP-100,2013-11-22 22:00:00,
2013-11-22 17:05:00,50.9,50.0,30.02,NW,315,1.0,2.0,97,0.00,,,0.00,Rainwise IP-100,2013-11-22 22:05:00,
2013-11-22 17:10:00,50.9,50.0,30.03,NW,315,2.0,2.0,97,0.00,,,0.00,Rainwise IP-100,2013-11-22 22:10:00,
2013-11-22 17:15:00,50.9,50.0,30.03,NW,315,2.0,2.0,97,0.00,,,0.00,Rainwise IP-100,2013-11-22 22:15:00,
2013-11-22 17:20:00,50.8,50.0,30.03,NW,315,1.0,2.0,97,0.00,,,0.00,Rainwise IP-100,2013-11-22 22:20:00,
2013-11-22 17:25:00,50.8,50.0,30.03,NW,315,2.0,3.0,97,0.00,,,0.00,Rainwise IP-100,2013-11-22 22:25:00,
2013-11-22 17:30:00,50.7,50.0,30.03,NW,315,2.0,5.0,97,0.00,,,0.00,Rainwise IP-100,2013-11-22 22:30:00,
2013-11-22 17:35:00,50.3,49.0,30.04,NW,315,3.0,5.0,97,0.00,,,0.00,Rainwise IP-100,2013-11-22 22:35:00,
2013-11-22 17:40:00,50.2,49.0,30.04,West,270,0.0,3.0,97,0.00,,,0.00,Rainwise IP-100,2013-11-22 22:40:00,
2013-11-22 17:45:00,50.1,49.0,30.04,NW,315,2.0,2.0,97,0.00,,,0.00,Rainwise IP-100,2013-11-22 22:45:00,
2013-11-22 17:50:00,49.9,49.0,30.04,NW,315,2.0,2.0,97,0.00,,,0.00,Rainwise IP-100,2013-11-22 22:50:00,
2013-11-22 17:55:00,49.8,49.0,30.04,NW,315,1.0,2.0,97,0.00,,,0.00,Rainwise IP-100,2013-11-22 22:55:00,
2013-11-22 18:00:00,49.5,49.0,30.05,NW,315,2.0,2.0,97,0.00,,,0.00,Rainwise IP-100,2013-11-22 23:00:00,
2013-11-22 18:05:00,49.2,48.0,30.04,NW,315,2.0,3.0,97,0.00,,,0.00,Rainwise IP-100,2013-11-22 23:05:00,
2013-11-22 18:10:00,49.1,48.0,30.04,NW,315,2.0,2.0,97,0.00,,,0.00,Rainwise IP-100,2013-11-22 23:10:00,
2013-11-22 18:15:00,48.9,48.0,30.04,NW,315,2.0,3.0,97,0.00,,,0.00,Rainwise IP-100,2013-11-22 23:15:00,
2013-11-22 18:20:00,48.9,48.0,30.04,NW,315,2.0,2.0,97,0.00,,,0.00,Rainwise IP-100,2013-11-22 23:20:00,
2013-11-22 18:25:00,48.8,48.0,30.04,WNW,292,2.0,2.0,97,0.00,,,0.00,Rainwise IP-100,2013-11-22 23:25:00,
2013-11-22 18:30:00,48.6,48.0,30.05,NW,315,2.0,2.0,97,0.00,,,0.00,Rainwise IP-100,2013-11-22 23:30:00,
2013-11-22 18:35:00,48.3,47.0,30.04,NW,315,2.0,2.0,97,0.00,,,0.00,Rainwise IP-100,2013-11-22 23:35:00,
2013-11-22 18:40:00,47.9,47.0,30.04,NW,315,4.0,4.0,97,0.00,,,0.00,Rainwise IP-100,2013-11-22 23:40:00,
2013-11-22 18:45:00,47.9,47.0,30.04,NW,315,0.0,4.0,97,0.00,,,0.00,Rainwise IP-100,2013-11-22 23:45:00,
2013-11-22 18:50:00,47.7,47.0,30.05,NW,315,1.0,4.0,97,0.00,,,0.00,Rainwise IP-100,2013-11-22 23:50:00,
2013-11-22 18:55:00,47.5,47.0,30.05,NW,315,2.0,4.0,97,0.00,,,0.00,Rainwise IP-100,2013-11-22 23:55:00,
2013-11-22 19:00:00,47.3,46.0,30.04,NW,315,3.0,4.0,97,0.00,,,0.00,Rainwise IP-100,2013-11-23 00:00:00,
2013-11-22 19:05:00,47.0,46.0,30.05,NW,315,3.0,4.0,97,0.00,,,0.00,Rainwise IP-100,2013-11-23 00:05:00,
2013-11-22 19:10:00,46.7,46.0,30.05,NW,315,3.0,3.0,97,0.00,,,0.00,Rainwise IP-100,2013-11-23 00:10:00,
2013-11-22 19:15:00,46.5,46.0,30.05,West,270,2.0,3.0,97,0.00,,,0.00,Rainwise IP-100,2013-11-23 00:15:00,
2013-11-22 19:20:00,46.3,45.0,30.05,NW,315,2.0,2.0,97,0.00,,,0.00,Rainwise IP-100,2013-11-23 00:20:00,
2013-11-22 19:25:00,46.2,45.0,30.05,South,180,2.0,2.0,97,0.00,,,0.00,Rainwise IP-100,2013-11-23 00:25:00,
2013-11-22 19:30:00,45.9,45.0,30.06,NW,315,1.0,5.0,97,0.00,,,0.00,Rainwise IP-100,2013-11-23 00:30:00,
2013-11-22 19:35:00,45.7,45.0,30.06,NW,315,2.0,2.0,97,0.00,,,0.00,Rainwise IP-100,2013-11-23 00:35:00,
2013-11-22 19:40:00,45.6,45.0,30.06,NW,315,0.0,2.0,97,0.00,,,0.00,Rainwise IP-100,2013-11-23 00:40:00,
2013-11-22 19:45:00,45.5,45.0,30.06,ESE,112,0.0,2.0,97,0.00,,,0.00,Rainwise IP-100,2013-11-23 00:45:00,
2013-11-22 19:50:00,45.4,44.0,30.06,SSW,202,0.0,2.0,97,0.00,,,0.00,Rainwise IP-100,2013-11-23 00:50:00,
2013-11-22 19:55:00,45.3,44.0,30.06,SSE,157,0.0,0.0,97,0.00,,,0.00,Rainwise IP-100,2013-11-23 00:55:00,
2013-11-22 20:00:00,45.2,44.0,30.06,WSW,247,1.0,1.0,97,0.00,,,0.00,Rainwise IP-100,2013-11-23 01:00:00,
2013-11-22 20:05:00,44.9,44.0,30.06,WNW,292,0.0,4.0,96,0.00,,,0.00,Rainwise IP-100,2013-11-23 01:05:00,
2013-11-22 20:10:00,44.7,44.0,30.06,WNW,292,2.0,2.0,96,0.00,,,0.00,Rainwise IP-100,2013-11-23 01:10:00,
2013-11-22 20:15:00,44.6,44.0,30.07,West,270,1.0,2.0,96,0.00,,,0.00,Rainwise IP-100,2013-11-23 01:15:00,
2013-11-22 20:20:00,44.6,44.0,30.06,South,180,0.0,1.0,96,0.00,,,0.00,Rainwise IP-100,2013-11-23 01:20:00,
2013-11-22 20:25:00,44.5,44.0,30.07,NW,315,0.0,2.0,96,0.00,,,0.00,Rainwise IP-100,2013-11-23 01:25:00,
2013-11-22 20:30:00,44.4,43.0,30.07,NW,315,2.0,2.0,96,0.00,,,0.00,Rainwise IP-100,2013-11-23 01:30:00,
2013-11-22 20:35:00,44.3,43.0,30.07,NW,315,1.0,5.0,96,0.00,,,0.00,Rainwise IP-100,2013-11-23 01:35:00,
2013-11-22 20:40:00,44.4,43.0,30.08,NW,315,2.0,3.0,96,0.00,,,0.00,Rainwise IP-100,2013-11-23 01:40:00,
2013-11-22 20:45:00,44.3,43.0,30.07,SW,225,2.0,2.0,96,0.00,,,0.00,Rainwise IP-100,2013-11-23 01:45:00,
2013-11-22 20:50:00,44.3,43.0,30.07,NW,315,2.0,2.0,96,0.00,,,0.00,Rainwise IP-100,2013-11-23 01:50:00,
2013-11-22 20:55:00,44.3,43.0,30.07,NW,315,1.0,2.0,96,0.00,,,0.00,Rainwise IP-100,2013-11-23 01:55:00,
2013-11-22 21:00:00,44.2,43.0,30.08,South,180,0.0,1.0,96,0.00,,,0.00,Rainwise IP-100,2013-11-23 02:00:00,
2013-11-22 21:05:00,44.2,43.0,30.08,WNW,292,0.0,2.0,96,0.00,,,0.00,Rainwise IP-100,2013-11-23 02:05:00,
2013-11-22 21:10:00,44.1,43.0,30.07,WNW,292,0.0,0.0,96,0.00,,,0.00,Rainwise IP-100,2013-11-23 02:10:00,
2013-11-22 21:15:00,44.1,43.0,30.07,West,270,2.0,2.0,96,0.00,,,0.00,Rainwise IP-100,2013-11-23 02:15:00,
2013-11-22 21:20:00,43.8,43.0,30.08,WNW,292,2.0,2.0,96,0.00,,,0.00,Rainwise IP-100,2013-11-23 02:20:00,
2013-11-22 21:25:00,43.6,43.0,30.08,NW,315,2.0,2.0,96,0.00,,,0.00,Rainwise IP-100,2013-11-23 02:25:00,
2013-11-22 21:30:00,42.9,42.0,30.09,NW,315,1.0,4.0,96,0.00,,,0.00,Rainwise IP-100,2013-11-23 02:30:00,
2013-11-22 21:35:00,42.5,42.0,30.09,NW,315,2.0,2.0,96,0.00,,,0.00,Rainwise IP-100,2013-11-23 02:35:00,
2013-11-22 21:40:00,42.0,41.0,30.10,NW,315,2.0,2.0,96,0.00,,,0.00,Rainwise IP-100,2013-11-23 02:40:00,
2013-11-22 21:45:00,41.4,40.0,30.10,NW,315,4.0,4.0,96,0.00,,,0.00,Rainwise IP-100,2013-11-23 02:45:00,
2013-11-22 21:50:00,40.9,40.0,30.11,NW,315,2.0,4.0,96,0.00,,,0.00,Rainwise IP-100,2013-11-23 02:50:00,
2013-11-22 21:55:00,40.5,40.0,30.11,WNW,292,4.0,4.0,96,0.00,,,0.00,Rainwise IP-100,2013-11-23 02:55:00,
2013-11-22 22:00:00,40.0,39.0,30.11,West,270,2.0,6.0,96,0.00,,,0.00,Rainwise IP-100,2013-11-23 03:00:00,
2013-11-22 22:05:00,39.6,39.0,30.11,NW,315,1.0,2.0,96,0.00,,,0.00,Rainwise IP-100,2013-11-23 03:05:00,
2013-11-22 22:10:00,39.4,38.0,30.11,NW,315,1.0,6.0,96,0.00,,,0.00,Rainwise IP-100,2013-11-23 03:10:00,
2013-11-22 22:15:00,39.2,38.0,30.12,NW,315,1.0,2.0,96,0.00,,,0.00,Rainwise IP-100,2013-11-23 03:15:00,
2013-11-22 22:20:00,39.0,38.0,30.12,WNW,292,1.0,2.0,96,0.00,,,0.00,Rainwise IP-100,2013-11-23 03:20:00,
2013-11-22 22:25:00,38.8,38.0,30.12,NW,315,1.0,3.0,96,0.00,,,0.00,Rainwise IP-100,2013-11-23 03:25:00,
2013-11-22 22:30:00,38.7,38.0,30.11,NW,315,1.0,2.0,96,0.00,,,0.00,Rainwise IP-100,2013-11-23 03:30:00,
2013-11-22 22:35:00,38.6,38.0,30.12,NW,315,1.0,1.0,96,0.00,,,0.00,Rainwise IP-100,2013-11-23 03:35:00,
2013-11-22 22:40:00,38.5,38.0,30.11,NW,315,2.0,2.0,96,0.00,,,0.00,Rainwise IP-100,2013-11-23 03:40:00,
2013-11-22 22:45:00,38.4,37.0,30.12,NW,315,2.0,3.0,96,0.00,,,0.00,Rainwise IP-100,2013-11-23 03:45:00,
2013-11-22 22:50:00,38.3,37.0,30.12,WNW,292,2.0,3.0,96,0.00,,,0.00,Rainwise IP-100,2013-11-23 03:50:00,
2013-11-22 22:55:00,38.0,37.0,30.12,WNW,292,4.0,4.0,96,0.00,,,0.00,Rainwise IP-100,2013-11-23 03:55:00,
2013-11-22 23:00:00,37.9,37.0,30.12,NW,315,2.0,4.0,95,0.00,,,0.00,Rainwise IP-100,2013-11-23 04:00:00,
2013-11-22 23:05:00,37.8,37.0,30.12,NW,315,2.0,3.0,95,0.00,,,0.00,Rainwise IP-100,2013-11-23 04:05:00,
2013-11-22 23:10:00,37.5,37.0,30.12,WNW,292,4.0,4.0,95,0.00,,,0.00,Rainwise IP-100,2013-11-23 04:10:00,
2013-11-22 23:15:00,37.3,36.0,30.12,NW,315,4.0,4.0,95,0.00,,,0.00,Rainwise IP-100,2013-11-23 04:15:00,
2013-11-22 23:20:00,37.1,36.0,30.12,West,270,2.0,4.0,95,0.00,,,0.00,Rainwise IP-100,2013-11-23 04:20:00,
2013-11-22 23:25:00,36.9,36.0,30.12,NW,315,2.0,2.0,95,0.00,,,0.00,Rainwise IP-100,2013-11-23 04:25:00,
2013-11-22 23:30:00,36.9,36.0,30.12,NW,315,2.0,4.0,95,0.00,,,0.00,Rainwise IP-100,2013-11-23 04:30:00,
2013-11-22 23:35:00,36.8,36.0,30.11,West,270,4.0,4.0,95,0.00,,,0.00,Rainwise IP-100,2013-11-23 04:35:00,
2013-11-22 23:40:00,36.5,36.0,30.12,NNW,337,1.0,4.0,95,0.00,,,0.00,Rainwise IP-100,2013-11-23 04:40:00,
2013-11-22 23:45:00,36.3,35.0,30.12,WNW,292,1.0,2.0,95,0.00,,,0.00,Rainwise IP-100,2013-11-23 04:45:00,
2013-11-22 23:50:00,36.2,35.0,30.11,East,90,1.0,2.0,95,0.00,,,0.00,Rainwise IP-100,2013-11-23 04:50:00,
2013-11-22 23:55:00,36.0,35.0,30.11,WNW,292,1.0,2.0,95,0.00,,,0.00,Rainwise IP-100,2013-11-23 04:55:00,